This is the latest recevied weather packets stored in our database for station/object N7ZEF. If no packets are shown the sender has not sent any weather packets the latest 10 day(s).
| Time | Temp. | Humidity | Pressure | Rain* | Wind** | Luminosity | Snow |
|---|---|---|---|---|---|---|---|
| 1777804762 | 5.56° C | 43% | 1019.3 hPa | 0 mm | - | - | - |
| 1777804161 | 5.56° C | 43% | 1019.3 hPa | 0 mm | - | - | - |
| 1777803559 | 6.11° C | 43% | 1019 hPa | 0 mm | - | - | - |
| 1777802958 | 6.11° C | 42% | 1019.2 hPa | 0 mm | - | - | - |
| 1777802356 | 5.56° C | 43% | 1019.2 hPa | 0 mm | - | - | - |
| 1777801755 | 5.56° C | 42% | 1019 hPa | 0 mm | - | - | - |
| 1777801154 | 5.56° C | 42% | 1019 hPa | 0 mm | - | - | - |
| 1777800552 | 6.11° C | 42% | 1019.2 hPa | 0 mm | - | - | - |
| 1777799951 | 6.11° C | 41% | 1018.7 hPa | 0 mm | - | - | - |
| 1777799349 | 6.11° C | 41% | 1018.7 hPa | 0 mm | - | - | - |
| 1777798748 | 6.11° C | 41% | 1018.7 hPa | 0 mm | - | - | - |
| 1777798147 | 6.11° C | 40% | 1018.7 hPa | 0 mm | - | - | - |
| 1777797545 | 6.11° C | 39% | 1018.8 hPa | 0 mm | - | - | - |
| 1777796944 | 6.11° C | 38% | 1018.8 hPa | 0 mm | - | - | - |
| 1777796343 | 6.11° C | 38% | 1018.9 hPa | 0 mm | - | - | - |
| 1777795741 | 6.67° C | 37% | 1018.8 hPa | 0 mm | - | - | - |
| 1777795140 | 7.22° C | 37% | 1018.9 hPa | 0 mm | - | - | - |
| 1777794538 | 7.78° C | 34% | 1018.9 hPa | 0 mm | - | - | - |
| 1777793937 | 7.78° C | 33% | 1018.9 hPa | 0 mm | - | - | - |
| 1777793336 | 7.78° C | 34% | 1018.9 hPa | 0 mm | - | - | - |
| 1777792734 | 7.78° C | 34% | 1018.8 hPa | 0 mm | - | - | - |
| 1777792133 | 7.78° C | 34% | 1018.9 hPa | 0 mm | - | - | - |
| 1777791532 | 7.78° C | 33% | 1018.9 hPa | 0 mm | - | - | - |
| 1777790930 | 7.78° C | 33% | 1019 hPa | 0 mm | - | - | - |
| 1777790329 | 7.78° C | 34% | 1019 hPa | 0 mm | - | - | - |
* Rain latest hour (hover to see other rain measurements)
** Current wind speed in m/s (hover to see current wind gust speed)